Moose Lake, MN

9:26 AM CDT on August 26, 2016 (GMT -0500)
Moose Lake-Carlton County

Weather History for KMZH - January, 2013

Change the Weather History Date:

Sunday, January 13, 2013

  Actual Average Record
Temperature  
Mean Temperature 6 °F -  
Max Temperature 10 °F 20 °F 44 °F (1987)
Min Temperature 1 °F -2 °F -30 °F (1972)
Degree Days  
Heating Degree Days 60    
Moisture  
Dew Point -5 °F    
Average Humidity 63    
Maximum Humidity 72    
Minimum Humidity 52    
Precipitation  
Precipitation 0.00 in - - ()
Sea Level Pressure  
Sea Level Pressure 30.04 in    
Wind  
Wind Speed 5 mph (WNW)    
Max Wind Speed 9 mph    
Max Gust Speed -    
Visibility 8 miles    
Events Snow    
Averages and records for this station are not official NWS values.
T = Trace of Precipitation, MM = Missing Value Source: NWS Daily Summary

Daily Weather History Graph

Daily Weather History Graph

Search for Another Location

Airport or City:

Trip Planner

Search our weather history database for the weather conditions in past years. The results will help you decide how hot, cold, wet, or windy it might be!

Date:

Astronomy

Jan. 13, 2013 Rise Set
Actual Time 7:51 AM CST 4:48 PM CST
Civil Twilight 7:17 AM CST 5:22 PM CST
Nautical Twilight 6:40 AM CST 6:00 PM CST
Astronomical Twilight 6:03 AM CST 6:36 PM CST
Moon 8:40 AM CST (1/13) 7:39 PM CST (1/13)
Length of Visible Light 10h 05m
Length of Day
8h 57m
Waxing Crescent, 5% of the Moon is Illuminated
Jan 13
Waxing Crescent
Jan 18
First Quarter
Jan 26
Full
Feb 3
Last Quarter
Feb 10
New

Hourly Weather History & Observations

Time (CST) Temp. Windchill Dew Point Humidity Pressure Visibility Wind Dir Wind Speed Gust Speed Precip Events Conditions
12:11 AM 8.6 °F -1.3 °F -2.2 °F 62% 29.98 in 5.0 mi NW 5.8 mph - N/A Snow Light Snow
12:31 AM 8.6 °F 0.1 °F -2.2 °F 62% 29.98 in 7.0 mi NW 4.6 mph - N/A Snow Light Snow
12:51 AM 6.8 °F -0.1 °F -2.2 °F 67% 29.98 in 5.0 mi NNW 3.5 mph - N/A Snow Light Snow
1:11 AM 6.8 °F -3.5 °F -2.2 °F 67% 29.98 in 3.0 mi NNW 5.8 mph - N/A Snow Light Snow
1:31 AM 6.8 °F - -2.2 °F 67% 29.99 in 7.0 mi Calm Calm - N/A   Overcast
1:51 AM 5.0 °F -2.1 °F -4.0 °F 66% 30.00 in 10.0 mi NW 3.5 mph - N/A   Overcast
2:11 AM 5.0 °F -4.1 °F -4.0 °F 66% 30.00 in 10.0 mi NW 4.6 mph - N/A   Overcast
2:31 AM 5.0 °F -4.1 °F -4.0 °F 66% 30.01 in 10.0 mi NNW 4.6 mph - N/A   Mostly Cloudy
2:51 AM 5.0 °F -2.1 °F -4.0 °F 66% 30.00 in 10.0 mi WNW 3.5 mph - N/A   Scattered Clouds
3:11 AM 5.0 °F -2.1 °F -4.0 °F 66% 30.00 in 10.0 mi NW 3.5 mph - N/A   Scattered Clouds
3:31 AM 3.2 °F -6.2 °F -4.0 °F 72% 29.99 in 10.0 mi NW 4.6 mph - N/A   Scattered Clouds
3:51 AM 3.2 °F -6.2 °F -4.0 °F 72% 29.98 in 10.0 mi NW 4.6 mph - N/A   Clear
4:11 AM 3.2 °F -4.2 °F -5.8 °F 66% 29.97 in 10.0 mi NW 3.5 mph - N/A   Scattered Clouds
4:31 AM 3.2 °F - -5.8 °F 66% 29.97 in 10.0 mi Calm Calm - N/A   Mostly Cloudy
4:51 AM 3.2 °F - -5.8 °F 66% 29.97 in 7.0 mi Calm Calm - N/A   Mostly Cloudy
5:11 AM 3.2 °F -6.2 °F -5.8 °F 66% 29.98 in 10.0 mi NNW 4.6 mph - N/A   Overcast
5:31 AM 3.2 °F -6.2 °F -5.8 °F 66% 29.99 in 10.0 mi NW 4.6 mph - N/A   Overcast
5:51 AM 3.2 °F -6.2 °F -5.8 °F 66% 30.00 in 10.0 mi NW 4.6 mph - N/A   Mostly Cloudy
6:11 AM 3.2 °F -7.8 °F -5.8 °F 66% 30.01 in 10.0 mi NW 5.8 mph - N/A   Mostly Cloudy
6:31 AM 1.4 °F -8.3 °F -7.6 °F 66% 30.02 in 10.0 mi NW 4.6 mph - N/A   Overcast
6:51 AM 1.4 °F -9.9 °F -7.6 °F 66% 30.04 in 10.0 mi WNW 5.8 mph - N/A   Scattered Clouds
7:11 AM 1.4 °F -9.9 °F -7.6 °F 66% 30.04 in 10.0 mi NW 5.8 mph - N/A   Clear
7:31 AM 1.4 °F -11.3 °F -7.6 °F 66% 30.03 in 10.0 mi NW 6.9 mph - N/A   Clear
7:51 AM 1.4 °F -11.3 °F -7.6 °F 66% 30.03 in 10.0 mi NW 6.9 mph - N/A   Scattered Clouds
8:11 AM 1.4 °F -6.2 °F -7.6 °F 66% 30.05 in 10.0 mi WNW 3.5 mph - N/A   Clear
8:31 AM 1.4 °F -6.2 °F -7.6 °F 66% 30.07 in 10.0 mi West 3.5 mph - N/A   Clear
8:51 AM 1.4 °F -9.9 °F -7.6 °F 66% 30.08 in 10.0 mi West 5.8 mph - N/A   Scattered Clouds
9:11 AM 3.2 °F -7.8 °F -7.6 °F 61% 30.08 in 10.0 mi NW 5.8 mph - N/A   Mostly Cloudy
9:31 AM 3.2 °F -6.2 °F -5.8 °F 66% 30.08 in 10.0 mi NW 4.6 mph - N/A   Overcast
9:51 AM 3.2 °F -9.1 °F -5.8 °F 66% 30.07 in 10.0 mi WNW 6.9 mph - N/A Snow Light Snow
10:11 AM 5.0 °F -6.9 °F -5.8 °F 61% 30.07 in 7.0 mi NNW 6.9 mph - N/A Snow Light Snow
10:31 AM 5.0 °F -5.6 °F -5.8 °F 61% 30.06 in 2.5 mi NNW 5.8 mph - N/A Snow Light Snow
10:51 AM 5.0 °F -6.9 °F -5.8 °F 61% 30.05 in 2.5 mi WNW 6.9 mph - N/A   Haze
11:11 AM 5.0 °F -5.6 °F -5.8 °F 61% 30.04 in 3.0 mi WNW 5.8 mph - N/A   Haze
11:31 AM 6.8 °F -5.9 °F -5.8 °F 56% 30.03 in 2.0 mi WNW 8.1 mph - N/A Snow Light Snow
11:51 AM 6.8 °F -4.8 °F -5.8 °F 56% 30.02 in 2.5 mi WNW 6.9 mph - N/A   Haze
12:11 PM 6.8 °F -6.9 °F -5.8 °F 56% 30.01 in 4.0 mi WNW 9.2 mph - N/A Snow Light Snow
12:31 PM 8.6 °F -2.6 °F -5.8 °F 52% 30.00 in 1.5 mi NW 6.9 mph - N/A Snow Light Snow
12:51 PM 8.6 °F -2.6 °F -5.8 °F 52% 30.00 in 5.0 mi WNW 6.9 mph - N/A   Haze
1:11 PM 8.6 °F -3.7 °F -4.0 °F 57% 30.00 in 4.0 mi WNW 8.1 mph - N/A   Haze
1:31 PM 8.6 °F -1.3 °F -5.8 °F 52% 30.00 in 7.0 mi NW 5.8 mph - N/A   Overcast
1:51 PM 8.6 °F 2.0 °F -4.0 °F 57% 30.01 in 10.0 mi WNW 3.5 mph - N/A   Overcast
2:11 PM 10.4 °F -1.5 °F -4.0 °F 52% 30.01 in 10.0 mi West 8.1 mph - N/A   Overcast
2:31 PM 10.4 °F -1.5 °F -2.2 °F 57% 30.01 in 1.5 mi West 8.1 mph - N/A Snow Light Snow
2:51 PM 8.6 °F -2.6 °F -0.4 °F 67% 30.02 in 1.5 mi West 6.9 mph - N/A Snow Light Snow
3:11 PM 10.4 °F -0.4 °F -4.0 °F 52% 30.02 in 10.0 mi WNW 6.9 mph - N/A   Overcast
3:31 PM 10.4 °F -0.4 °F -4.0 °F 52% 30.03 in 10.0 mi NW 6.9 mph - N/A   Overcast
3:51 PM 10.4 °F -0.4 °F -4.0 °F 52% 30.03 in 10.0 mi WNW 6.9 mph - N/A   Overcast
4:11 PM 10.4 °F -1.5 °F -4.0 °F 52% 30.04 in 10.0 mi WNW 8.1 mph - N/A   Overcast
4:31 PM 8.6 °F -1.3 °F -4.0 °F 57% 30.04 in 10.0 mi WNW 5.8 mph - N/A   Scattered Clouds
4:51 PM 8.6 °F 0.1 °F -4.0 °F 57% 30.05 in 10.0 mi West 4.6 mph - N/A   Scattered Clouds
5:11 PM 8.6 °F 2.0 °F -4.0 °F 57% 30.05 in 10.0 mi West 3.5 mph - N/A   Scattered Clouds
5:31 PM 8.6 °F 2.0 °F -4.0 °F 57% 30.05 in 10.0 mi West 3.5 mph - N/A   Mostly Cloudy
5:51 PM 8.6 °F 0.1 °F -4.0 °F 57% 30.06 in 10.0 mi West 4.6 mph - N/A   Scattered Clouds
6:11 PM 8.6 °F 2.0 °F -4.0 °F 57% 30.06 in 10.0 mi WSW 3.5 mph - N/A   Scattered Clouds
6:31 PM 8.6 °F 2.0 °F -4.0 °F 57% 30.06 in 10.0 mi WSW 3.5 mph - N/A   Scattered Clouds
6:51 PM 6.8 °F -2.0 °F -4.0 °F 61% 30.07 in 10.0 mi WSW 4.6 mph - N/A   Mostly Cloudy
7:11 PM 5.0 °F -4.1 °F -4.0 °F 66% 30.07 in 10.0 mi WSW 4.6 mph - N/A   Mostly Cloudy
7:31 PM 5.0 °F -4.1 °F -4.0 °F 66% 30.08 in 10.0 mi WSW 4.6 mph - N/A   Mostly Cloudy
7:51 PM 5.0 °F -2.1 °F -4.0 °F 66% 30.08 in 10.0 mi WSW 3.5 mph - N/A   Overcast
8:11 PM 5.0 °F -2.1 °F -4.0 °F 66% 30.08 in 10.0 mi SW 3.5 mph - N/A   Mostly Cloudy
8:31 PM 3.2 °F -4.2 °F -5.8 °F 66% 30.09 in 10.0 mi SW 3.5 mph - N/A   Scattered Clouds
8:51 PM 3.2 °F -4.2 °F -5.8 °F 66% 30.09 in 10.0 mi SW 3.5 mph - N/A   Overcast
9:11 PM 5.0 °F -2.1 °F -4.0 °F 66% 30.10 in 10.0 mi SW 3.5 mph - N/A   Overcast
9:31 PM 5.0 °F -2.1 °F -4.0 °F 66% 30.10 in 10.0 mi SSW 3.5 mph - N/A   Overcast
9:51 PM 3.2 °F - -4.0 °F 72% 30.10 in 10.0 mi Calm Calm - N/A   Mostly Cloudy
10:11 PM 3.2 °F - -4.0 °F 72% 30.11 in 10.0 mi Calm Calm - N/A   Mostly Cloudy
10:31 PM 3.2 °F - -5.8 °F 66% 30.11 in 10.0 mi Calm Calm - N/A   Scattered Clouds
10:51 PM 1.4 °F - -5.8 °F 72% 30.11 in 10.0 mi Calm Calm - N/A   Scattered Clouds
11:31 PM 1.4 °F - -5.8 °F 72% 30.12 in 10.0 mi Calm Calm - N/A   Overcast
11:51 PM 3.2 °F -4.2 °F -4.0 °F 72% 30.13 in 10.0 mi SSW 3.5 mph - N/A   Overcast